Location: ????????
(55.3939°N, 37.4780°E)
Time: 16:59:31
(UTC+00:00)

Cosmos 1943 - Pass Details

Date: 14 April 2026
Orbit: 832 x 847 km, 71.0° (Epoch: 16 May)

Event Time Altitude Azimuth Distance (km) Brightness Sun altitude
Exits shadow 20:52:23 63° 153° (SSE) 946 3.1 -24.5°
Maximum altitude 20:52:57 67° 118° (ESE) 917 3.1 -24.5°
Drops below altitude 10° 20:58:36 10° 37° (NE) 2,477 6.2 -24.6°
Sets 21:01:04 0° 35° (NE) 3,414 7.0 -24.7°
